375P/Hill (2018)

Japanese version
Home page
Updated on June 14, 2021

---------------------------------------------------------------------

* Profile

Designation 375P/2018 T1
Recovery Date October 5, 2018
Magnitude 20.6 mag
Recoverer K. Sarneczky (Konkoly Observatory)

* Pictures

* Orbital Elements

Epoch 2018 Dec. 28.0 TT = JDT 2458480.5                                         
T 2018 Dec. 21.43522 TT                                 Rudenko                 
q   1.8951629            (2000.0)            P               Q                  
n   0.07511975     Peri.  119.42593     -0.49077672     -0.87128536             
a   5.5628836      Node   359.96408     +0.65957170     -0.37138253             
e   0.6593201      Incl.   17.36545     +0.56930079     -0.32083771             
P  13.1                                                                         
From 315 observations 2005 Dec. 5-2019 Apr. 28, mean residual 0".7.             

* Magnitudes Graph

        m1 = 15.0 + 5 log d + 10.0 log r

---------------------------------------------------------------------

The orbital elements are published on M.P.E.C. 2021-F20.
The magnitudes graphs are made with Comet for Windows.

---------------------------------------------------------------------

Copyright(C) Seiichi Yoshida (comet@aerith.net). All rights reserved.